{"data":{"norad_id":53683,"intl_designator":"2022-105AM","name":"STARLINK-4625","alt_names":[],"object_type":"PAYLOAD","status":"ACTIVE","operator":null,"country":"US","launch_date":"2022-08-31","launch_site_code":"AFWTR","launch_vehicle":null,"mission":null,"orbit_class":"UNKNOWN","rcs_meters":null,"size_class":null,"mass_kg":null,"dimensions":null,"purposes":["comms"],"wikipedia_slug":null,"has_3d_model":false,"image_url":null,"decayed_at":null,"tle_current":{"epoch":"2026-05-25T02:41:02.652000Z","epoch_age_seconds":58614,"freshness":"FRESH","line1":"1 53683U 22105AM  26145.11183625  .00000638  00000+0  48302-4 0  9997","line2":"2 53683  97.4507  25.1066 0002538  75.2859 284.8649 15.05647423204737","mean_motion":15.05647423,"eccentricity":0.0002538,"inclination_deg":97.4507,"raan_deg":25.1066,"arg_perigee_deg":75.2859,"mean_anomaly_deg":284.8649,"bstar":4.8302e-5,"rev_number":20473,"period_min":95.639920608425,"perigee_km":547.76081963469,"apogee_km":551.27729785011,"semimajor_km":6927.6560587424,"source":"CELESTRAK","updated_at":"2026-05-25T13:38:17.527898Z"}}}